COSMOS 2251 DEB, 34050

Orbit data source: Space-Track

COSMOS 2251 DEB, 34050 is space debris in LEO originally from a launch on Wed, 16 Jun 1993 UTC launched from the Plesetsk Missile And Space Complex (PKMTR). The debris from Iridium 33, an American commercial communications satellite, has been tracked extensively since its accidental collision with the defunct Russian satellite Cosmos 2251 in 2009. This event, occurring at high speed in low Earth orbit (LEO), generated thousands of pieces of space debris, significantly increasing the risk of further collisions. The Iridium 33 debris cloud has impacted space traffic management and orbital debris mitigation strategies, making it a subject of ongoing study in space situational awareness.

Loading next visibility...
Identifier
34050, 1993-036JM
Orbit
LEO
Country
Flag of CISCIS
Related business
Manufacturer
Unknown
Mission
Spacecraft
Bus & Motor
Unknown
Mass
Unknown
Launch date (UTC)
1993-06-16 (33 years ago)
Launch vehicle
Unknown
Launch site
Plesetsk Missile And Space Complex (PKMTR)
Object type
Payload
Rocket body
Debris
Shape & HBR
Unknown shape, 0.1 m
Radar Cross Section
Medium (>0.1 m² and <1 m²)

Expand to show TLE details & history
Last TLE update: 1 day ago

TLE from 1 day ago
0 COSMOS 2251 DEB
1 34050U 93036JM  26264.07506622  .00000377  00000-0  23584-3 0  9993
2 34050  74.0849 245.4116 0219626 242.3518 188.3995 13.96764087893734
Epoch: 2026-09-21T01:48Z
TLE epoch observation values (Epoch: 2026-09-21T01:48:05.721Z)
Latitude
65.04053°
Longitude
-104.01974°
Altitude
1,074.227 km
Speed
7.241 km/s
True Right ascension
18h 51m 51s
True Declination
64° 54' 51"
Sunlit
Object was in daylight at epoch
Visualization orbit readout
Latitude
Unknown
Longitude
Unknown
Altitude
Unknown
Speed
Unknown
Apparent Right ascension
Unknown
Apparent Declination
Unknown
Sunlit
N/A
Visualization observer readout
Local Sidereal Time
04:09:24
Azimuth
Unknown
Elevation
Unknown
Doppler factor
Unknown
Orbital elements
Apogee altitude
1,062.59 km
Perigee altitude
742.778 km
Semi-major axis
7,280.821 km
Eccentricity
0.02196
Inclination
74.0849°
RAAN
245.4116°
Arg. of periapsis
242.3518°
True anomaly
188.0416°
Mean anomaly
188.3995°
Eccentric anomaly
188.21959°
Mean motion
3.4936 °/min
Orbital period
103.05 mins
BSTAR
0.00023584
Loading maneuver chart data...
Computing Atmospheric mass density...

Documentation

Showing up to 5 results
|